DELTA 1 R/B(2) *, 2971

Orbit data source: Space-Track

DELTA 1 R/B(2) *, 2971 is space debris in HEO originally from a launch on Thu, 28 Sep 1967 UTC launched from the Air Force Eastern Test Range (AFETR). Debris objects in space refer to the collection of defunct objects orbiting the Earth. Examples of debris include non-operational satellites, rocket bodies, and fragments generated from explosions, collisions, or faulty payload assembly.

Loading next visibility...
Identifier
2971, 1967-094C
Orbit
HEO
Country
Flag of USUS
Related business
Manufacturer
UTC
Mission
Spacecraft
Bus & Motor
FW4, Unknown motor
Mass
~40 kg wet, ~40 kg dry
Launch date (UTC)
1967-09-28 (59 years ago)
Launch vehicle
Unknown
Launch site
Air Force Eastern Test Range (AFETR)
Object type
Payload
Rocket body
Debris
Shape & HBR
Unknown
Radar Cross Section
Large (>1 m²)

Expand to show TLE details & history
Last TLE update: 18 hours ago

TLE from 18 hours ago
0 DELTA 1 R/B(2) *
1  2971U 67094C   26191.86933551  .00002535  00000-0  11920-2 0  9994
2  2971  28.0919 165.2818 6538821 138.5342 296.1263  3.22957145560592
Epoch: 2026-07-10T20:51Z
TLE epoch observation values (Epoch: 2026-07-10T20:51:50.588Z)
Latitude
-0.00009°
Longitude
-76.47117°
Altitude
15,291.188 km
Speed
4.022 km/s
True Right ascension
11h 01m 07s
True Declination
0° 00' 00"
Sunlit
Object was in daylight at epoch
Visualization orbit readout
Latitude
Unknown
Longitude
Unknown
Altitude
Unknown
Speed
Unknown
Apparent Right ascension
Unknown
Apparent Declination
Unknown
Sunlit
N/A
Visualization observer readout
Local Sidereal Time
02:51:49
Azimuth
Unknown
Elevation
Unknown
Doppler factor
Unknown
Orbital elements
Apogee altitude
25,602.633 km
Perigee altitude
314.672 km
Semi-major axis
19,336.789 km
Eccentricity
0.65388
Inclination
28.0919°
RAAN
165.2818°
Arg. of periapsis
138.5342°
True anomaly
221.53353°
Mean anomaly
296.1263°
Eccentric anomaly
259.31161°
Mean motion
0.80717 °/min
Orbital period
446 mins
BSTAR
0.001192
Loading maneuver chart data...
Computing Atmospheric mass density...
Loading historical data...
Loading historical data...
Loading historical data...
Loading historical data...
Loading historical data...
Loading historical data...
Loading historical data...
Other satellites on launch #94 in the year 1967 (1967-09-28 UTC)

Documentation

Showing up to 5 results
|